Hourly Data Report for August 08, 2005

TORONTO CITY
ONTARIO

43°40'00.000" N
79°24'00.000" W
112.50 m
6158355
71508
XTO

Download Data

Hourly Data (August 2005)
Hourly Data Report for August 8, 2005
TIME
LST
Temp Definition
°C
Dew Point Definition
°C
Rel Hum Definition
%
Precip. Amount Definition
mm

Wind Dir Definition
10's deg

Wind Spd Definition
km/h
Visibility Definition
km
Stn Press Definition
kPa
Hmdx Definition


Wind Chill Definition


Weather Definition


00:00 22.7 17.0 70   LegendMM LegendMM   100.55 28   LegendNANA
01:00 22.6 16.5 68   LegendMM LegendMM   100.56 28   LegendNANA
02:00 21.3 16.6 75   LegendMM LegendMM   100.58 26   LegendNANA
03:00 20.8 16.4 76   LegendMM LegendMM   100.58 26   LegendNANA
04:00 20.5 16.5 78   LegendMM LegendMM   100.61 25   LegendNANA
05:00 20.1 16.8 81   LegendMM LegendMM   100.64 25   LegendNANA
06:00 20.5 17.6 83   LegendMM LegendMM   100.65 26   LegendNANA
07:00 22.6 17.9 75   LegendMM LegendMM   100.67 29   LegendNANA
08:00 25.2 18.7 67   LegendMM LegendMM   100.66 32   LegendNANA
09:00 26.1 19.0 65   LegendMM LegendMM   100.66 33   LegendNANA
10:00 26.9 18.8 61   LegendMM LegendMM   100.69 34   LegendNANA
11:00 27.7 18.9 59   LegendMM LegendMM   100.68 34   LegendNANA
12:00 28.2 17.9 54   LegendMM LegendMM   100.61 34   LegendNANA
13:00 29.1 17.3 49   LegendMM LegendMM   100.60 35   LegendNANA
14:00 29.4 15.0 42   LegendMM LegendMM   100.54 33   LegendNANA
15:00 30.7 17.3 45   LegendMM LegendMM   100.48 36   LegendNANA
16:00 30.0 16.5 44   LegendMM LegendMM   100.42 35   LegendNANA
17:00 28.1 17.4 52   LegendMM LegendMM   100.37 34   LegendNANA
18:00 26.7 17.9 59   LegendMM LegendMM   100.35 33   LegendNANA
19:00 26.1 18.9 65   LegendMM LegendMM   100.34 33   LegendNANA
20:00 25.7 17.5 61   LegendMM LegendMM   100.36 31   LegendNANA
21:00 25.2 17.2 61   LegendMM LegendMM   100.40 31   LegendNANA
22:00 23.5 18.4 73   LegendMM LegendMM   100.40 30   LegendNANA
23:00 23.2 18.1 73   LegendMM LegendMM   100.41 29   LegendNANA

Notes on Data Quality.

Legend

  • E = Estimated
  • M = Missing
  • NA = Not Available*
  • [empty] = Indicates an unobserved value
Date modified: